Regional Weather Roundup
Issued by NWS

Home | Current Version | Previous Version | Graphics & Text | Print | Product List | Glossary On
Versions: 1 2 3 4 5 6 7 8 9 10 11 12 13 14 15 16 17 18 19 20 21 22 23 24 25 26 27 28 29 30 31 32 33 34 35 36 37 38 39 40 41 42 43 44 45 46 47 48 49 50
000
ASUS43 KLOT 300558
RWRIL

ILLINOIS REGIONAL WEATHER ROUNDUP
NATIONAL WEATHER SERVICE CHICAGO/ROMEOVILLE IL
100 AM CDT SAT AUG 30 2014

NOTE: "FAIR" INDICATES FEW OR NO CLOUDS BELOW 12,000 FEET WITH NO
SIGNIFICANT WEATHER AND/OR OBSTRUCTIONS TO VISIBILITY.

* THESE STATIONS ARE NOT UNDER NWS QUALITY CONTROL. THEY ALSO MAY NOT
  REPORT WEATHER SUCH AS PRECIPITATION OR FOG.

ILZ001-002-007-009-015-016-024-300700-
NORTHWEST ILLINOIS

CITY           SKY/WX    TMP DP  RH WIND       PRES   REMARKS
MOLINE         FAIR      71  68  90 S10       29.83R
6HR MIN TEMP:  71; 6HR MAX TEMP:  80; 6HR PCP:  0.05;

$$

ILZ003-004-008-010-011-017-018-300700-
NORTH CENTRAL ILLINOIS

CITY           SKY/WX    TMP DP  RH WIND       PRES   REMARKS
ROCKFORD       NOT AVBL
$$

ILZ005-006-012>014-019>023-300700-
NORTHEAST ILLINOIS

CITY           SKY/WX    TMP DP  RH WIND       PRES   REMARKS
CHICAGO-OHARE  CLOUDY    75  67  76 S12       29.86S
6HR MIN TEMP:  74; 6HR MAX TEMP:  82; 6HR PCP:  0.08;

CHICAGO-MIDWAY MOCLDY    78  69  73 S8        29.87F HX  80
6HR MIN TEMP:  77; 6HR MAX TEMP:  83;

AURORA         FAIR      73  68  84 S7        29.86F
6HR MIN TEMP:  73; 6HR MAX TEMP:  76; 6HR PCP:  0.01;

WAUKEGAN       FAIR      75  68  78 S12       29.85S
6HR MIN TEMP:  73; 6HR MAX TEMP:  77;

DUPAGE AIRPORT FAIR      74  70  87 S10       29.86F
6HR MIN TEMP:  74; 6HR MAX TEMP:  79; 6HR PCP: TRACE;

WHEELING       FAIR      77  69  76 S12       29.88R
6HR MIN TEMP:  77; 6HR MAX TEMP:  82; 6HR PCP: TRACE;

NORTHERLY ISL    N/A     75  67  76 S10         N/A
$$

LMZ740>746-300700-
SOUTHERN LAKE MICHIGAN

STATION/POSITION SKY/WX   TEMP    WIND        PRES    VSBY  WAVE
                          AIR SEA DIR/SP/G                  HT/PER
                          (F)     (DEG/KT/KT) (MB)    (MI)  (FT/S)
SOUTHERN BUOY              72 69  160/ 16/ 19 1011.5F
WAUKEGAN HARBOR            73     170/ 14/ 17   N/A
HARRISON CRIB              73     160/ 18/ 21   N/A
BURNHAM HARBOR             75     180/  8/ 14   N/A
CALUMET HARBOR             75     160/  8/ 14 1010.8F
MICHIGAN CITY              72     140/ 11/ 14   N/A
MICHIGAN CITY 6N           73 72  160/ 14/ 17   N/A           1/ 2
ST. JOSEPH                 71 70  150/ 16/ 19   N/A           1/ 3
$$

ILZ025>027-034>036-040-047-049-050-058-095>099-300700-
WEST-CENTRAL ILLINOIS

CITY           SKY/WX    TMP DP  RH WIND       PRES   REMARKS
$$

ILZ028>032-037-038-041>044-048-051>054-059>061-300700-
CENTRAL ILLINOIS

CITY           SKY/WX    TMP DP  RH WIND       PRES   REMARKS
PEORIA         NOT AVBL
SPRINGFIELD    NOT AVBL
TAYLORVILLE    NOT AVBL
$$

ILZ033-039-045-046-055>057-062-063-300700-
EAST-CENTRAL ILLINOIS

CITY           SKY/WX    TMP DP  RH WIND       PRES   REMARKS
$$

ILZ079-100>102-300700-
SOUTHWEST ILLINOIS

CITY           SKY/WX    TMP DP  RH WIND       PRES   REMARKS
$$

ILZ064>066-069>071-074>076-080>082-084>086-088>090-092>094-300700-
SOUTH-CENTRAL ILLINOIS

CITY           SKY/WX    TMP DP  RH WIND       PRES   REMARKS
CARBONDALE     FAIR      74  68  81 S9        29.97S
6HR MIN TEMP:  74; 6HR MAX TEMP:  81; 6HR PCP: TRACE;

$$

ILZ067-068-072-073-078-083-087-091-300700-
SOUTHEAST ILLINOIS

CITY           SKY/WX    TMP DP  RH WIND       PRES   REMARKS
$$

ABBREVIATIONS USED IN REMARKS
   TC - TEMPERATURE IN CELSIUS
  WCI - WIND CHILL INDEX
   HX - HEAT INDEX
  VSB - VISIBILITY
$$



USA.gov is the U.S. government's official web portal to all federal, state and local government web resources and services.